Location: Theydon Bois
(51.6750°N, 0.1050°E)
Time: 07:13:14
(UTC+01:00)

Amateur Radio Satellites - All Passes

Search period start: 23 October 2017 06:43
Search period end: 24 October 2017 06:43
Location: Theydon Bois, 51.6750°N, 0.1050°E

Satellite Date Start Highest point End Downlink Frequencies (MHz)
Time Altitude Azimuth
CUTE 1.7 + AOD 2 23 Oct 06:47:15 06:48:01 10° 85° (E) 06:48:47 437.475
DOVE 4 23 Oct 06:48:58 06:53:53 63° 289° (WNW) 06:59:01 437.250
FO-29 23 Oct 06:54:50 06:58:10 16° 47° (NE) 07:01:42 435.910
AO-7 23 Oct 06:57:38 07:04:44 33° 312° (NW) 07:11:51 .
KAITUO 1B 23 Oct 07:04:09 07:07:41 41° 99° (E) 07:11:10 145.475/437.950
NO-84 23 Oct 07:04:48 07:08:56 56° 9° (N) 07:12:48 435.350 FM
O/OREOS (USA 219) 23 Oct 07:07:47 07:11:26 24° 257° (WSW) 07:15:04 437.305
XW-2F 23 Oct 07:10:49 07:14:32 62° 101° (E) 07:18:13 145.980 - 146.000
STRAND 1 23 Oct 07:10:57 07:16:04 71° 71° (ENE) 07:21:13 437.568
SO-50 23 Oct 07:11:50 07:16:17 66° 127° (SE) 07:20:46 436.795
NUDT-PHONESAT 23 Oct 07:13:29 07:17:05 50° 100° (E) 07:20:38 437.300
ITAMSAT 1 23 Oct 07:14:13 07:16:30 13° 312° (NW) 07:18:47 435.822/435.867
RS-15 23 Oct 07:16:43 07:28:41 54° 26° (NNE) 07:40:03 29.354- 29.394
YUBILEINY 23 Oct 07:20:36 07:23:33 12° 65° (ENE) 07:26:30 435.215
LilacSat-2 23 Oct 07:22:10 07:25:58 87° 286° (WNW) 07:29:44 437.200
XW-2D 23 Oct 07:25:33 07:29:19 83° 285° (WNW) 07:33:04 145.860 - 145.880
PCSat 23 Oct 07:34:58 07:39:20 25° 110° (ESE) 07:43:42 145.827
XW-2B 23 Oct 07:39:10 07:42:53 62° 287° (WNW) 07:46:34 145.730 - 145.750
HO-68 23 Oct 07:42:18 07:49:05 41° 97° (E) 07:55:49 435.675
CUTE-I 23 Oct 08:02:08 08:07:29 68° 290° (WNW) 08:12:49 437.470
XW-2A 23 Oct 08:02:33 08:04:59 19° 92° (E) 08:07:24 145.665 - 145.685
XW-2C 23 Oct 08:02:49 08:06:15 34° 292° (WNW) 08:09:40 145.795 - 145.815
CUBEBUG 2 23 Oct 08:14:47 08:19:18 46° 98° (E) 08:23:38 437.445
ZACube-1 23 Oct 08:18:30 08:21:30 18° 89° (E) 08:24:27 437.345
CUTE 1.7 + AOD 2 23 Oct 08:20:20 08:24:34 82° 106° (ESE) 08:28:46 437.475
SEEDS 23 Oct 08:21:45 08:25:52 55° 100° (E) 08:29:58 437.485
DOVE 4 23 Oct 08:28:31 08:30:44 13° 307° (NW) 08:32:59 437.250
AAUSAT CUBESAT 2 23 Oct 08:36:49 08:40:40 37° 97° (E) 08:44:31 437.432
FO-29 23 Oct 08:36:50 08:42:10 71° 70° (ENE) 08:48:06 435.910
KAITUO 1B 23 Oct 08:38:38 08:41:26 21° 297° (WNW) 08:44:13 145.475/437.950
NO-84 23 Oct 08:42:26 08:46:28 65° 209° (SSW) 08:50:11 435.350 FM
XW-2F 23 Oct 08:46:00 08:48:14 15° 300° (WNW) 08:50:27 145.980 - 146.000
UWE-3 23 Oct 08:46:44 08:51:12 55° 100° (E) 08:55:31 435.000/436.395/437.385
NUDT-PHONESAT 23 Oct 08:48:08 08:50:36 18° 299° (WNW) 08:53:05 437.300
Oscar 11 23 Oct 08:49:44 08:53:07 22° 92° (E) 08:56:30 .
AO-7 23 Oct 08:51:26 08:55:04 14° 338° (NNW) 08:58:43 .
STRAND 1 23 Oct 08:52:02 08:55:47 20° 271° (W) 08:59:34 437.568
SO-50 23 Oct 08:53:05 08:57:05 31° 329° (NNW) 09:01:09 436.795
LilacSat-2 23 Oct 08:58:22 08:59:37 11° 304° (WNW) 09:00:51 437.200
XW-2D 23 Oct 09:01:52 09:02:50 11° 304° (NW) 09:03:49 145.860 - 145.880
UNISAT 6 23 Oct 09:05:39 09:09:59 38° 66° (ENE) 09:14:21 437.425
YUBILEINY 23 Oct 09:09:50 09:18:08 52° 89° (E) 09:26:30 435.215
PCSat 23 Oct 09:16:52 09:22:17 70° 310° (NW) 09:27:45 145.827
PRISM 23 Oct 09:17:17 09:20:27 22° 61° (ENE) 09:23:39 437.425
TIGRISAT 23 Oct 09:19:25 09:23:53 46° 68° (ENE) 09:28:24 435.000
AO-73 23 Oct 09:29:52 09:34:15 73° 103° (ESE) 09:38:30 145.935
RS-15 23 Oct 09:30:03 09:42:05 77° 235° (SW) 09:53:26 29.354- 29.394
HO-68 23 Oct 09:30:04 09:37:01 53° 298° (WNW) 09:43:56 435.675
XW-2A 23 Oct 09:34:44 09:37:50 35° 291° (WNW) 09:40:54 145.665 - 145.685
DELFI C3 23 Oct 09:37:58 09:40:29 16° 89° (E) 09:42:59 145.870
nSIGHT-1 23 Oct 09:43:30 09:45:56 20° 145° (SE) 09:48:22 .
CUTE-I 23 Oct 09:43:39 09:46:38 15° 310° (NW) 09:49:37 437.470
CUBEBUG 2 23 Oct 09:51:46 09:55:41 27° 298° (WNW) 09:59:30 437.445
ZACube-1 23 Oct 09:53:52 09:58:13 61° 289° (WNW) 10:02:27 437.345
Max Valier Satellite 23 Oct 09:54:36 09:56:58 16° 90° (E) 09:59:19 145.860
CUTE 1.7 + AOD 2 23 Oct 09:57:26 09:59:51 15° 303° (WNW) 10:02:14 437.475
SEEDS 23 Oct 09:58:09 10:01:13 20° 299° (WNW) 10:04:17 437.485
AAUSAT CUBESAT 2 23 Oct 10:12:30 10:16:01 27° 296° (WNW) 10:19:31 437.432
NO-84 23 Oct 10:20:56 10:23:10 15° 230° (SW) 10:25:19 435.350 FM
ISS 23 Oct 10:23:22 10:26:19 32° 152° (SSE) 10:29:17 437.550
UWE-3 23 Oct 10:23:47 10:27:18 22° 300° (WNW) 10:30:44 435.000/436.395/437.385
FO-29 23 Oct 10:24:02 10:28:04 21° 273° (W) 10:32:23 435.910
Oscar 11 23 Oct 10:25:21 10:29:30 48° 291° (WNW) 10:33:39 .
AIST 2D 23 Oct 10:26:33 10:29:27 25° 66° (ENE) 10:32:21 435.315
SO-50 23 Oct 10:35:56 10:38:53 17° 354° (N) 10:41:51 436.795
UNISAT 6 23 Oct 10:42:29 10:46:44 33° 265° (W) 10:51:00 437.425
AO-7 23 Oct 10:43:36 10:44:18 10° 6° (N) 10:45:00 .
PRISM 23 Oct 10:51:35 10:55:29 46° 260° (W) 10:59:26 437.425
TIGRISAT 23 Oct 10:56:46 11:00:45 27° 267° (W) 11:04:47 435.000
EO-79 23 Oct 11:01:30 11:05:12 29° 64° (ENE) 11:08:56 145.935-145.965
PCSat 23 Oct 11:02:18 11:06:38 24° 334° (NNW) 11:11:00 145.827
YUBILEINY 23 Oct 11:06:52 11:15:07 46° 293° (WNW) 11:23:30 435.215
POLYITAN 1 23 Oct 11:06:58 11:10:48 32° 65° (ENE) 11:14:39 437.675
AO-73 23 Oct 11:07:07 11:09:58 17° 303° (WNW) 11:12:47 145.935
EO-88 23 Oct 11:10:31 11:14:10 78° 105° (ESE) 11:17:47 145.990 - 145.960
DELFI C3 23 Oct 11:11:41 11:15:36 59° 288° (WNW) 11:19:31 145.870
BEESAT 3 23 Oct 11:15:11 11:17:48 17° 114° (ESE) 11:20:26 437.485
nSIGHT-1 23 Oct 11:18:39 11:21:49 66° 164° (SSE) 11:25:01 .
HO-68 23 Oct 11:19:04 11:23:16 17° 321° (NW) 11:27:26 435.675
ESTCUBE 1 23 Oct 11:19:30 11:21:51 14° 87° (E) 11:24:12 437.505/2401.250
Oscar 19 23 Oct 11:23:20 11:25:02 12° 47° (NE) 11:26:44 437.125/150
QB50P2 23 Oct 11:27:05 11:31:14 53° 70° (ENE) 11:35:27 145.880/145.840
NANOSAT C BR1 23 Oct 11:27:12 11:31:15 44° 68° (ENE) 11:35:19 145.865
Max Valier Satellite 23 Oct 11:27:30 11:31:06 50° 289° (WNW) 11:34:38 145.860
ZACube-1 23 Oct 11:32:42 11:33:36 11° 309° (NW) 11:34:29 437.345
BUGSAT 1 23 Oct 11:33:17 11:35:55 16° 57° (ENE) 11:38:33 437.445
DUCHIFAT 1 23 Oct 11:36:07 11:40:11 47° 69° (ENE) 11:44:19 145.980
RS-15 23 Oct 11:43:46 11:52:27 25° 261° (W) 12:00:52 29.354- 29.394
LO-87 23 Oct 11:50:12 11:53:32 32° 96° (E) 11:56:50 145.935 - 145.965
ISS 23 Oct 11:59:19 12:02:35 83° 169° (S) 12:05:52 437.550
AIST 2D 23 Oct 11:59:27 12:02:33 29° 264° (W) 12:05:41 435.315
M-CUBED/EXP-1 PRIME 23 Oct 12:06:30 12:08:28 15° 54° (NE) 12:10:26 437.505
Gurwin Techsat 1B 23 Oct 12:16:45 12:20:41 21° 55° (NE) 12:24:37 435.225
SO-50 23 Oct 12:17:29 12:20:56 20° 18° (NNE) 12:24:23 436.795
AO-7 23 Oct 12:28:36 12:33:51 19° 33° (NNE) 12:39:07 .
VELOX 1 23 Oct 12:31:52 12:34:08 14° 87° (E) 12:36:24 145.980
AO-85 23 Oct 12:34:54 12:37:49 20° 116° (ESE) 12:40:48 145.980
EO-79 23 Oct 12:36:53 12:40:52 37° 263° (W) 12:44:53 145.935-145.965
BEESAT 2 23 Oct 12:41:58 12:45:39 35° 121° (ESE) 12:49:23 435.950
POLYITAN 1 23 Oct 12:42:39 12:46:33 33° 264° (W) 12:50:29 437.675
EO-88 23 Oct 12:45:42 12:47:17 12° 302° (WNW) 12:48:51 145.990 - 145.960
PCSat 23 Oct 12:48:44 12:52:00 16° 0° (N) 12:55:17 145.827
BEESAT 3 23 Oct 12:50:51 12:54:52 75° 313° (NW) 12:58:55 437.485
ESTCUBE 1 23 Oct 12:54:45 12:59:16 84° 285° (WNW) 13:03:45 437.505/2401.250
nSIGHT-1 23 Oct 12:54:52 12:58:05 90° 26° (NNE) 13:01:18 .
SPROUT 23 Oct 12:57:47 13:01:41 32° 96° (E) 13:05:32 437.525
Oscar 19 23 Oct 12:58:17 13:03:17 53° 68° (ENE) 13:08:18 437.125/150
NANOSAT C BR1 23 Oct 13:03:40 13:07:08 24° 267° (W) 13:10:39 145.865
QB50P2 23 Oct 13:04:08 13:07:20 20° 269° (W) 13:10:34 145.880/145.840
BUGSAT 1 23 Oct 13:06:30 13:10:43 77° 256° (WSW) 13:15:01 437.445
YUBILEINY 23 Oct 13:10:35 13:14:50 14° 321° (NW) 13:19:08 435.215
DUCHIFAT 1 23 Oct 13:12:45 13:16:06 22° 268° (W) 13:19:28 145.980
LO-87 23 Oct 13:23:49 13:26:50 24° 295° (WNW) 13:29:48 145.935 - 145.965
DX 1 23 Oct 13:28:12 13:30:17 13° 87° (E) 13:32:21 434.975-435.025
ISS 23 Oct 13:35:48 13:39:04 79° 194° (SSW) 13:42:20 437.550
M-CUBED/EXP-1 PRIME 23 Oct 13:39:23 13:42:37 51° 253° (WSW) 13:45:49 437.505
ITAMSAT 1 23 Oct 13:40:50 13:43:31 14° 49° (NE) 13:46:12 435.822/435.867
UKube-1 23 Oct 13:45:39 13:47:33 13° 87° (E) 13:49:28 .
Gurwin Techsat 1B 23 Oct 13:54:45 14:00:04 79° 255° (WSW) 14:05:26 435.225
SO-50 23 Oct 13:57:47 14:02:19 55° 41° (NE) 14:06:52 436.795
VELOX 1 23 Oct 14:06:43 14:11:12 84° 285° (WNW) 14:15:39 145.980
AO-85 23 Oct 14:13:56 14:17:49 60° 317° (NW) 14:21:53 145.980
AO-7 23 Oct 14:16:58 14:24:52 51° 57° (ENE) 14:32:47 .
BEESAT 2 23 Oct 14:19:32 14:23:22 40° 322° (NW) 14:27:14 435.950
BEESAT 3 23 Oct 14:29:59 14:33:03 20° 335° (NNW) 14:36:08 437.485
nSIGHT-1 23 Oct 14:31:10 14:34:15 43° 204° (SSW) 14:37:19 .
PCSat 23 Oct 14:33:01 14:37:23 24° 26° (NNE) 14:41:43 145.827
ESTCUBE 1 23 Oct 14:33:01 14:35:24 14° 306° (NW) 14:37:46 437.505/2401.250
SPROUT 23 Oct 14:33:41 14:37:35 33° 295° (WNW) 14:41:26 437.525
Oscar 19 23 Oct 14:38:33 14:42:54 27° 267° (W) 14:47:16 437.125/150
50 SAT 23 Oct 14:51:41 14:55:00 74° 286° (WNW) 14:58:18 437.505
DX 1 23 Oct 15:02:41 15:07:05 86° 282° (WNW) 15:11:28 434.975-435.025
MOZHAYETS 4 23 Oct 15:08:01 15:10:44 15° 87° (E) 15:13:27
ISS 23 Oct 15:12:24 15:15:17 29° 210° (SSW) 15:18:10 437.550
ITAMSAT 1 23 Oct 15:16:55 15:22:04 65° 70° (ENE) 15:27:15 435.822/435.867
UKube-1 23 Oct 15:19:51 15:24:13 88° 277° (W) 15:28:33 .
Gurwin Techsat 1B 23 Oct 15:38:14 15:40:54 14° 275° (W) 15:43:35 435.225
SO-50 23 Oct 15:38:34 15:42:35 30° 241° (WSW) 15:46:38 436.795
VELOX 1 23 Oct 15:44:36 15:46:58 14° 306° (NW) 15:49:21 145.980
AO-85 23 Oct 15:56:07 15:59:02 19° 340° (NNW) 16:02:03 145.980
BEESAT 2 23 Oct 15:59:36 16:02:06 16° 344° (NNW) 16:04:38 435.950
ITUPSAT 1 23 Oct 16:07:08 16:11:43 42° 98° (E) 16:16:16 437.325
nSIGHT-1 23 Oct 16:08:50 16:09:54 11° 222° (SW) 16:10:58 .
AO-7 23 Oct 16:09:44 16:17:42 50° 259° (W) 16:25:45 .
BEESAT 3 23 Oct 16:10:11 16:12:01 13° 358° (N) 16:13:51 437.485
CUTE-I 23 Oct 16:13:25 16:15:50 13° 48° (NE) 16:18:16 437.470
PCSat 23 Oct 16:16:16 16:21:42 70° 49° (NE) 16:27:07 145.827
BEESAT 23 Oct 16:20:19 16:25:03 56° 101° (E) 16:29:45 436.000
DOVE 4 23 Oct 16:22:48 16:26:41 34° 65° (ENE) 16:30:46 437.250
HO-68 23 Oct 16:32:46 16:36:59 17° 40° (NE) 16:41:13 435.675
LilacSat-2 23 Oct 16:37:02 16:38:47 13° 58° (ENE) 16:40:33 437.200
XW-2D 23 Oct 16:39:45 16:41:32 13° 58° (ENE) 16:43:20 145.860 - 145.880
DX 1 23 Oct 16:40:16 16:42:37 14° 306° (NW) 16:44:59 434.975-435.025
MOZHAYETS 4 23 Oct 16:43:52 16:48:28 78° 288° (WNW) 16:53:02
XW-2B 23 Oct 16:52:35 16:55:00 16° 60° (ENE) 16:57:25 145.730 - 145.750
UKube-1 23 Oct 16:57:16 16:59:36 14° 305° (NW) 17:01:56 .
ITAMSAT 1 23 Oct 16:57:58 17:01:59 22° 269° (W) 17:06:03 435.822/435.867
CUBESAT XI-V 23 Oct 17:03:50 17:08:15 44° 98° (E) 17:12:40 437.345
XW-2C 23 Oct 17:15:05 17:18:17 26° 65° (ENE) 17:21:29 145.795 - 145.815
YUBILEINY 23 Oct 17:17:55 17:20:22 11° 33° (NNE) 17:22:49 435.215
AO-85 23 Oct 17:38:38 17:41:00 14° 5° (N) 17:43:26 145.980
BEESAT 2 23 Oct 17:39:17 17:41:24 14° 8° (N) 17:43:31 435.950
CUBEBUG 2 23 Oct 17:43:53 17:46:11 14° 53° (NE) 17:48:29 437.445
CUTE 1.7 + AOD 2 23 Oct 17:44:00 17:46:39 17° 58° (ENE) 17:49:18 437.475
ITUPSAT 1 23 Oct 17:45:13 17:49:26 31° 298° (WNW) 17:53:38 437.325
SEEDS 23 Oct 17:45:54 17:47:20 12° 54° (NE) 17:48:47 437.485
KKS-1 23 Oct 17:46:44 17:50:53 35° 97° (E) 17:54:59 437.445
BEESAT 3 23 Oct 17:48:09 17:51:02 18° 22° (NNE) 17:53:53 437.485
KAITUO 1B 23 Oct 17:48:49 17:52:20 42° 70° (ENE) 17:55:52 145.475/437.950
CUTE-I 23 Oct 17:49:38 17:54:51 58° 69° (ENE) 18:00:07 437.470
XW-2F 23 Oct 17:56:16 18:00:00 64° 72° (ENE) 18:03:44 145.980 - 146.000
NUDT-PHONESAT 23 Oct 17:57:12 18:00:48 50° 71° (ENE) 18:04:24 437.300
BEESAT 23 Oct 17:58:40 18:02:31 25° 301° (WNW) 18:06:22 436.000
PCSat 23 Oct 18:00:18 18:04:40 25° 250° (WSW) 18:09:00 145.827
DOVE 4 23 Oct 18:00:33 18:04:25 32° 266° (W) 18:08:28 437.250
LilacSat-2 23 Oct 18:08:42 18:12:31 82° 254° (WSW) 18:16:21 437.200
STARS 23 Oct 18:10:03 18:13:50 27° 94° (E) 18:17:36 437.465
AO-7 23 Oct 18:11:00 18:12:41 11° 282° (WNW) 18:14:23 .
XW-2D 23 Oct 18:11:23 18:15:11 80° 258° (WSW) 18:18:59 145.860 - 145.880
UWE-3 23 Oct 18:14:23 18:17:01 15° 55° (NE) 18:19:39 435.000/436.395/437.385
HO-68 23 Oct 18:16:20 18:23:15 54° 62° (ENE) 18:30:13 435.675
MOZHAYETS 4 23 Oct 18:22:34 18:24:53 14° 307° (NW) 18:27:11
XW-2B 23 Oct 18:25:03 18:28:48 59° 259° (W) 18:32:32 145.730 - 145.750
XW-2A 23 Oct 18:38:55 18:41:11 17° 62° (ENE) 18:43:27 145.665 - 145.685
CUBESAT XI-V 23 Oct 18:41:34 18:45:28 28° 297° (WNW) 18:49:21 437.345
XW-2C 23 Oct 18:48:57 18:52:23 32° 263° (W) 18:55:50 145.795 - 145.815
AO-73 23 Oct 18:55:40 18:58:40 18° 58° (ENE) 19:01:39 145.935
YUBILEINY 23 Oct 19:12:41 19:20:41 36° 62° (ENE) 19:28:38 435.215
BEESAT 2 23 Oct 19:16:51 19:20:23 27° 32° (NNE) 19:23:54 435.950
STRAND 1 23 Oct 19:17:00 19:20:13 16° 87° (E) 19:23:25 437.568
CUBEBUG 2 23 Oct 19:17:16 19:21:58 71° 73° (ENE) 19:26:44 437.445
CUTE 1.7 + AOD 2 23 Oct 19:17:46 19:21:59 73° 257° (WSW) 19:26:13 437.475
SEEDS 23 Oct 19:18:08 19:22:17 75° 75° (ENE) 19:26:28 437.485
ZACube-1 23 Oct 19:18:42 19:22:38 29° 64° (ENE) 19:26:33 437.345
AO-85 23 Oct 19:19:06 19:22:46 26° 29° (NNE) 19:26:39 145.980
KKS-1 23 Oct 19:23:22 19:27:25 33° 296° (WNW) 19:31:26 437.445
KAITUO 1B 23 Oct 19:23:47 19:26:31 19° 268° (W) 19:29:15 145.475/437.950
BEESAT 3 23 Oct 19:25:21 19:29:20 62° 44° (NE) 19:33:14 437.485
CUTE-I 23 Oct 19:30:53 19:35:16 26° 268° (W) 19:39:42 437.470
AAUSAT CUBESAT 2 23 Oct 19:31:39 19:35:36 48° 70° (ENE) 19:39:34 437.432
NUDT-PHONESAT 23 Oct 19:32:31 19:34:56 16° 269° (W) 19:37:21 437.300
XW-2F 23 Oct 19:32:35 19:34:32 14° 272° (W) 19:36:27 145.980 - 146.000
STARS 23 Oct 19:46:07 19:50:19 42° 293° (WNW) 19:54:31 437.465
O/OREOS (USA 219) 23 Oct 19:46:31 19:49:56 21° 103° (ESE) 19:53:24 437.305
UWE-3 23 Oct 19:48:06 19:52:47 83° 74° (ENE) 19:57:29 435.000/436.395/437.385
Oscar 11 23 Oct 19:49:18 19:53:12 33° 66° (ENE) 19:57:05 .
HO-68 23 Oct 20:04:32 20:11:12 41° 263° (W) 20:17:58 435.675
XW-2A 23 Oct 20:10:20 20:13:36 44° 260° (W) 20:16:54 145.665 - 145.685
DELFI C3 23 Oct 20:28:14 20:31:06 20° 61° (ENE) 20:33:59 145.870
AO-73 23 Oct 20:29:47 20:34:22 78° 258° (WSW) 20:38:55 145.935
Max Valier Satellite 23 Oct 20:38:29 20:41:03 18° 61° (ENE) 20:43:36 145.860
ZACube-1 23 Oct 20:54:23 20:58:45 43° 262° (W) 21:03:07 437.345
BEESAT 2 23 Oct 20:54:25 20:58:27 64° 233° (SW) 21:02:25 435.950
STRAND 1 23 Oct 20:54:54 21:00:06 86° 291° (WNW) 21:05:16 437.568
CUBEBUG 2 23 Oct 20:55:49 20:59:04 18° 272° (W) 21:02:22 437.445
SEEDS 23 Oct 20:56:17 20:58:30 14° 273° (W) 21:00:43 437.485
AO-85 23 Oct 20:59:11 21:03:38 84° 231° (SW) 21:08:28 145.980
BEESAT 3 23 Oct 21:03:33 21:06:31 20° 244° (WSW) 21:09:26 437.485
AAUSAT CUBESAT 2 23 Oct 21:08:15 21:11:19 20° 269° (W) 21:14:24 437.432
YUBILEINY 23 Oct 21:09:28 21:18:11 68° 266° (W) 21:26:54 435.215
FO-29 23 Oct 21:23:21 21:29:58 45° 97° (E) 21:37:11 435.910
O/OREOS (USA 219) 23 Oct 21:24:25 21:28:57 60° 302° (WNW) 21:33:33 437.305
Oscar 11 23 Oct 21:25:25 21:29:19 32° 264° (W) 21:33:15 .
UWE-3 23 Oct 21:27:08 21:29:50 15° 273° (W) 21:32:33 435.000/436.395/437.385
EO-88 23 Oct 21:52:44 21:56:22 75° 74° (ENE) 22:00:02 145.990 - 145.960
DELFI C3 23 Oct 22:01:45 22:05:33 49° 260° (W) 22:09:23 145.870
AO-73 23 Oct 22:09:53 22:11:20 11° 276° (W) 22:12:48 145.935
Max Valier Satellite 23 Oct 22:10:54 22:14:32 51° 260° (W) 22:18:12 145.860
ESTCUBE 1 23 Oct 22:23:33 22:27:13 25° 62° (ENE) 22:30:53 437.505/2401.250
PRISM 23 Oct 22:27:56 22:30:35 16° 90° (E) 22:33:15 437.425
UNISAT 6 23 Oct 22:28:12 22:32:32 38° 96° (E) 22:36:44 437.425
LO-87 23 Oct 22:31:02 22:34:15 31° 67° (ENE) 22:37:29 145.935 - 145.965
STRAND 1 23 Oct 22:35:13 22:38:36 18° 307° (NW) 22:41:57 437.568
AO-85 23 Oct 22:40:48 22:43:31 16° 247° (WSW) 22:46:20 145.980
TIGRISAT 23 Oct 22:41:54 22:46:23 46° 98° (E) 22:50:43 435.000
O/OREOS (USA 219) 23 Oct 23:06:48 23:09:22 15° 325° (NW) 23:11:57 437.305
YUBILEINY 23 Oct 23:08:07 23:13:17 17° 289° (WNW) 23:18:29 435.215
FO-29 23 Oct 23:08:33 23:15:04 49° 295° (WNW) 23:22:13 435.910
AIST 2D 23 Oct 23:19:26 23:21:23 14° 90° (E) 23:23:19 435.315
EO-88 23 Oct 23:29:22 23:30:31 11° 273° (W) 23:31:39 145.990 - 145.960
VELOX 1 23 Oct 23:33:35 23:37:07 24° 61° (ENE) 23:40:41 145.980
SPROUT 23 Oct 23:55:46 23:59:54 48° 69° (ENE) 00:04:03 437.525
RS-15 23 Oct 23:59:09 00:10:17 43° 110° (ESE) 00:21:20 29.354- 29.394
ESTCUBE 1 23 Oct 23:59:27 00:03:47 48° 260° (W) 00:08:10 437.505/2401.250
PRISM 24 Oct 00:02:10 00:06:16 63° 289° (WNW) 00:10:21 437.425
LO-87 24 Oct 00:04:38 00:07:40 25° 265° (W) 00:10:45 145.935 - 145.965
UNISAT 6 24 Oct 00:05:04 00:09:10 32° 296° (WNW) 00:13:11 437.425
EO-79 24 Oct 00:15:59 00:19:30 24° 93° (E) 00:22:59 145.935-145.965
TIGRISAT 24 Oct 00:18:58 00:22:51 27° 298° (WNW) 00:26:38 435.000
POLYITAN 1 24 Oct 00:21:42 00:25:22 27° 94° (E) 00:29:00 437.675
DX 1 24 Oct 00:28:08 00:31:35 24° 60° (ENE) 00:35:03 434.975-435.025
NANOSAT C BR1 24 Oct 00:41:25 00:45:24 37° 97° (E) 00:49:20 145.865
QB50P2 24 Oct 00:42:00 00:46:09 46° 99° (E) 00:50:14 145.880/145.840
UKube-1 24 Oct 00:44:25 00:47:46 23° 60° (ENE) 00:51:09 .
BUGSAT 1 24 Oct 00:44:52 00:46:12 11° 86° (E) 00:47:32 437.445
DUCHIFAT 1 24 Oct 00:50:00 00:54:01 40° 98° (E) 00:58:00 145.980
AIST 2D 24 Oct 00:51:29 00:54:52 51° 288° (WNW) 00:58:14 435.315
FO-29 24 Oct 00:55:23 00:58:47 15° 316° (NW) 01:02:20 435.910
Oscar 19 24 Oct 01:06:19 01:08:07 12° 84° (E) 01:09:56 437.125/150
VELOX 1 24 Oct 01:09:05 01:13:20 49° 260° (W) 01:17:37 145.980
50 SAT 24 Oct 01:24:43 01:27:59 86° 68° (ENE) 01:31:17 437.505
SPROUT 24 Oct 01:32:38 01:36:02 22° 268° (W) 01:39:26 437.525
PRISM 24 Oct 01:40:19 01:40:44 10° 308° (NW) 01:41:08 437.425
NO-84 24 Oct 01:40:20 01:41:57 12° 127° (SE) 01:43:35 435.350 FM
ITUPSAT 1 24 Oct 01:43:28 01:46:30 17° 54° (NE) 01:49:33 437.325
EO-79 24 Oct 01:51:23 01:55:26 43° 292° (WNW) 01:59:28 145.935-145.965
BEESAT 24 Oct 01:55:45 01:59:17 21° 57° (ENE) 02:02:49 436.000
POLYITAN 1 24 Oct 01:57:17 02:01:15 38° 293° (WNW) 02:05:11 437.675
DX 1 24 Oct 02:03:18 02:07:30 50° 260° (W) 02:11:45 434.975-435.025
Gurwin Techsat 1B 24 Oct 02:05:43 02:10:15 27° 93° (E) 02:14:45 435.225
RS-15 24 Oct 02:09:37 02:22:02 79° 316° (NW) 02:34:18 29.354- 29.394
MOZHAYETS 4 24 Oct 02:14:26 02:18:23 28° 63° (ENE) 02:22:21
NANOSAT C BR1 24 Oct 02:17:21 02:21:01 29° 296° (WNW) 02:24:38 145.865
BUGSAT 1 24 Oct 02:17:58 02:22:15 87° 107° (ESE) 02:26:26 437.445
QB50P2 24 Oct 02:18:15 02:21:42 24° 298° (WNW) 02:25:08 145.880/145.840
UKube-1 24 Oct 02:19:19 02:23:30 52° 259° (W) 02:27:45 .
DUCHIFAT 1 24 Oct 02:25:57 02:29:32 27° 297° (WNW) 02:33:05 145.980
CUBESAT XI-V 24 Oct 02:37:35 02:40:00 14° 54° (NE) 02:42:24 437.345
Oscar 19 24 Oct 02:43:15 02:48:24 72° 104° (ESE) 02:53:30 437.125/150
M-CUBED/EXP-1 PRIME 24 Oct 02:45:39 02:49:00 37° 105° (ESE) 02:52:35 437.505
NO-84 24 Oct 03:14:26 03:18:36 49° 145° (SE) 03:22:41 435.350 FM
KKS-1 24 Oct 03:16:52 03:18:17 11° 51° (NE) 03:19:41 437.445
ITUPSAT 1 24 Oct 03:18:51 03:23:41 89° 74° (ENE) 03:28:33 437.325
ITAMSAT 1 24 Oct 03:25:30 03:28:28 15° 86° (E) 03:31:26 435.822/435.867
BEESAT 24 Oct 03:31:49 03:36:36 70° 256° (WSW) 03:41:25 436.000
Gurwin Techsat 1B 24 Oct 03:45:19 03:50:31 54° 292° (WNW) 03:55:41 435.225
MOZHAYETS 4 24 Oct 03:50:57 03:55:23 44° 262° (W) 03:59:50
BUGSAT 1 24 Oct 03:54:39 03:56:59 15° 304° (NW) 03:59:19 437.445
AO-7 24 Oct 04:04:33 04:12:22 42° 98° (E) 04:20:09 .
O/OREOS (USA 219) 24 Oct 04:10:58 04:14:28 21° 42° (NE) 04:17:56 437.305
CUBESAT XI-V 24 Oct 04:12:02 04:16:39 80° 73° (ENE) 04:21:17 437.345
M-CUBED/EXP-1 PRIME 24 Oct 04:20:26 04:23:20 24° 301° (WNW) 04:26:24 437.505
Oscar 19 24 Oct 04:23:21 04:27:15 22° 303° (WNW) 04:31:08 437.125/150
RS-15 24 Oct 04:24:43 04:36:31 47° 346° (NNW) 04:47:59 29.354- 29.394
KKS-1 24 Oct 04:49:35 04:53:58 63° 71° (ENE) 04:58:25 437.445
NO-84 24 Oct 04:51:44 04:56:01 65° 345° (NNW) 05:00:08 435.350 FM
ITUPSAT 1 24 Oct 04:59:36 05:02:12 14° 273° (W) 05:04:49 437.325
ITAMSAT 1 24 Oct 05:03:26 05:08:44 86° 106° (ESE) 05:13:59 435.822/435.867
STARS 24 Oct 05:11:20 05:15:33 46° 68° (ENE) 05:19:48 437.465
BEESAT 24 Oct 05:14:10 05:15:16 11° 276° (W) 05:16:21 436.000
Gurwin Techsat 1B 24 Oct 05:27:17 05:29:23 12° 313° (NW) 05:31:29 435.225
O/OREOS (USA 219) 24 Oct 05:49:50 05:54:28 81° 243° (WSW) 05:59:03 437.305
CUBESAT XI-V 24 Oct 05:51:57 05:54:37 15° 273° (W) 05:57:19 437.345
DOVE 4 24 Oct 05:52:16 05:57:07 47° 98° (E) 06:02:09 437.250
XW-2B 24 Oct 05:54:38 05:55:02 10° 86° (E) 05:55:27 145.730 - 145.750
AO-7 24 Oct 05:57:21 06:05:27 59° 300° (WNW) 06:13:32 .
SO-50 24 Oct 05:57:55 06:01:27 23° 116° (ESE) 06:05:02 436.795
CUTE-I 24 Oct 06:02:16 06:05:21 15° 86° (E) 06:08:26 437.470
XW-2C 24 Oct 06:16:14 06:18:50 18° 91° (E) 06:21:26 145.795 - 145.815
KKS-1 24 Oct 06:27:51 06:30:57 18° 270° (W) 06:34:04 437.445
NO-84 24 Oct 06:29:39 06:33:49 54° 6° (N) 06:37:43 435.350 FM
